Hyalite Weather Station

This weather station provides temperature, wind speed, gust or max wind speed, and wind direction at 9982ft near the summit of Flanders Mountain. This data can be used with temperature and precipitation data from the Shower Falls SNOTEL site. If the data has not been updated recently you can view it directly on datagarrison.com

Elevation
9982ft
Jump to table bottom
Date Time Temperature
deg F
RH, % Wind Speed Wind Gust Wind Direction
12/01/22 15:00 16.7 82 24 51 SW - 230
12/01/22 14:00 16.7 80 27 49 SW - 234
12/01/22 13:00 16.2 82 27 48 SW - 236
12/01/22 12:00 16.0 82 20 47 SW - 233
12/01/22 11:00 16.0 82 19 43 SW - 237
12/01/22 10:00 15.4 82 17 38 SW - 236
12/01/22 09:00 15.7 82 16 38 SW - 246
12/01/22 08:00 15.6 82 17 41 SW - 240
12/01/22 07:00 16.2 82 18 40 SW - 240
12/01/22 06:00 15.7 82 21 41 SW - 241
12/01/22 05:00 15.7 81 15 37 SW - 237
12/01/22 04:00 15.5 81 20 42 SW - 244
12/01/22 03:00 14.6 81 22 40 SW - 243
12/01/22 02:00 14.5 80 26 43 SW - 241
12/01/22 01:00 14.3 81 27 41 SW - 239
12/01/22 00:00 14.7 80 27 40 SW - 241
11/30/22 23:00 15.9 79 30 42 SW - 243
11/30/22 22:00 15.4 79 31 49 SW - 241
11/30/22 21:00 15.7 81 30 44 SW - 240
11/30/22 20:00 16.7 79 34 48 SW - 240
11/30/22 19:00 16.5 79 34 49 SW - 240
11/30/22 18:00 16.5 80 34 51 SW - 241
11/30/22 17:00 15.3 80 34 47 SW - 241
11/30/22 16:00 16.2 79 34 47 SW - 244
11/30/22 15:00 15.7 80 36 54 SW - 246
11/30/22 14:00 14.1 81 38 55 SW - 247
11/30/22 13:00 15.6 78 40 55 SW - 247
11/30/22 12:00 14.9 80 39 53 SW - 246
11/30/22 11:00 14.1 79 37 48 SW - 241
11/30/22 10:00 13.6 78 35 48 SW - 247
11/30/22 09:00 12.3 80 36 48 SW - 246
11/30/22 08:00 10.8 80 31 48 SW - 239
11/30/22 07:00 11.0 79 27 39 SW - 239
11/30/22 06:00 7.3 81 27 37 SW - 246
11/30/22 05:00 5.4 81 31 43 SW - 246
11/30/22 04:00 3.9 75 24 38 SW - 240
11/30/22 03:00 1.6 77 24 41 SW - 234
11/30/22 02:00 -0.4 78 27 40 SW - 233
11/30/22 01:00 -1.6 81 24 40 SW - 223
11/30/22 00:00 -2.1 80 26 40 SW - 232
11/29/22 23:00 -2.6 82 15 27 SW - 243
11/29/22 22:00 -3.2 82 19 29 SW - 244
11/29/22 21:00 -3.7 82 17 24 SW - 247
11/29/22 20:00 -3.7 82 14 20 W - 256
11/29/22 19:00 -4.1 82 15 25 W - 254
11/29/22 18:00 -4.2 82 14 22 W - 254
11/29/22 17:00 -4.4 82 10 16 W - 263
11/29/22 16:00 -3.9 82 10 21 W - 261
11/29/22 15:00 -3.5 82 11 26 W - 250
11/29/22 14:00 -3.2 82 14 28 W - 254